| time (UTC) | temp F | wind direction | speed MPH | gust MPH | rain 1hr in | rain 24hr in | rain mn in | humidity % | barometer mb |
| 20260904233517 | 71 | 168 | 2.0 | 7.0 | 0.00 | 0.00 | 0.00 | 75 | 1013.1 |
| 20260904233052 | 72 | 327 | 2.0 | 7.0 | 0.00 | 0.00 | 0.00 | 73 | 1013.1 |
| 20260904232518 | 72 | 0 | 2.0 | 8.0 | 0.00 | 0.00 | 0.00 | 73 | 1013.1 |
| 20260904232018 | 73 | 42 | 1.0 | 8.0 | 0.00 | 0.00 | 0.00 | 73 | 1013.2 |
| 20260904231541 | 73 | 71 | 2.0 | 7.0 | 0.00 | 0.00 | 0.00 | 72 | 1013.2 |
| 20260904231021 | 73 | 224 | 1.0 | 5.0 | 0.00 | 0.00 | 0.00 | 72 | 1013.2 |
| 20260904230517 | 73 | 112 | 2.0 | 5.0 | 0.00 | 0.00 | 0.00 | 72 | 1013.3 |
| 20260904230040 | 73 | 258 | 2.0 | 5.0 | 0.00 | 0.00 | 0.00 | 72 | 1013.2 |
| 20260904225523 | 72 | 52 | 2.0 | 7.0 | 0.00 | 0.00 | 0.00 | 72 | 1013.3 |
| 20260904225020 | 73 | 15 | 2.0 | 7.0 | 0.00 | 0.00 | 0.00 | 72 | 1013.4 |
| 20260904224545 | 73 | 302 | 2.0 | 9.0 | 0.00 | 0.00 | 0.00 | 72 | 1013.5 |
| 20260904224018 | 73 | 290 | 3.0 | 9.0 | 0.00 | 0.00 | 0.00 | 71 | 1013.5 |
| 20260904223518 | 73 | 41 | 3.0 | 7.0 | 0.00 | 0.00 | 0.00 | 72 | 1013.5 |
| 20260904223041 | 74 | 0 | 2.0 | 7.0 | 0.00 | 0.00 | 0.00 | 70 | 1013.6 |
| 20260904222519 | 74 | 265 | 3.0 | 7.0 | 0.00 | 0.00 | 0.00 | 70 | 1013.6 |
| 20260904222021 | 74 | 17 | 2.0 | 6.0 | 0.00 | 0.00 | 0.00 | 70 | 1013.6 |
| 20260904221544 | 74 | 27 | 2.0 | 10.0 | 0.00 | 0.00 | 0.00 | 70 | 1013.6 |
| 20260904221019 | 74 | 59 | 1.0 | 10.0 | 0.00 | 0.00 | 0.00 | 70 | 1013.7 |
| 20260904220522 | 74 | 46 | 2.0 | 10.0 | 0.00 | 0.00 | 0.00 | 68 | 1013.8 |
| 20260904220038 | 75 | 101 | 1.0 | 6.0 | 0.00 | 0.00 | 0.00 | 68 | 1013.7 |
| 20260904215521 | 75 | 61 | 2.0 | 6.0 | 0.00 | 0.00 | 0.00 | 68 | 1013.8 |
| 20260904215017 | 75 | 84 | 1.0 | 6.0 | 0.00 | 0.00 | 0.00 | 69 | 1013.6 |
| 20260904214543 | 75 | 85 | 2.0 | 6.0 | 0.00 | 0.00 | 0.00 | 68 | 1013.6 |
| 20260904214024 | 74 | 109 | 1.0 | 6.0 | 0.00 | 0.00 | 0.00 | 68 | 1013.5 |
| 20260904213521 | 75 | 248 | 2.0 | 7.0 | 0.00 | 0.00 | 0.00 | 68 | 1013.6 |
| 20260904213037 | 74 | 50 | 2.0 | 7.0 | 0.00 | 0.00 | 0.00 | 70 | 1013.6 |
| 20260904212520 | 75 | 50 | 2.0 | 7.0 | 0.00 | 0.00 | 0.00 | 67 | 1013.6 |
| 20260904212023 | 76 | 166 | 2.0 | 7.0 | 0.00 | 0.00 | 0.00 | 65 | 1013.6 |
| 20260904211539 | 76 | 5 | 2.0 | 7.0 | 0.00 | 0.00 | 0.00 | 66 | 1013.6 |
| 20260904211017 | 76 | 84 | 2.0 | 9.0 | 0.00 | 0.00 | 0.00 | 67 | 1013.6 |
| 20260904210516 | 76 | 56 | 2.0 | 9.0 | 0.00 | 0.00 | 0.00 | 66 | 1013.8 |
| 20260904210042 | 77 | 77 | 2.0 | 9.0 | 0.00 | 0.00 | 0.00 | 64 | 1013.8 |
| 20260904205518 | 76 | 0 | 1.0 | 5.0 | 0.00 | 0.00 | 0.00 | 67 | 1013.9 |
| 20260904205020 | 77 | 136 | 1.0 | 6.0 | 0.00 | 0.00 | 0.00 | 65 | 1013.9 |
| 20260904204535 | 77 | 42 | 2.0 | 6.0 | 0.00 | 0.00 | 0.00 | 65 | 1014.0 |
| 20260904204017 | 76 | 0 | 1.0 | 8.0 | 0.00 | 0.00 | 0.00 | 66 | 1013.9 |
| 20260904203520 | 75 | 45 | 2.0 | 8.0 | 0.00 | 0.00 | 0.00 | 68 | 1013.9 |
| 20260904203040 | 75 | 123 | 2.0 | 8.0 | 0.00 | 0.00 | 0.00 | 67 | 1013.9 |
| 20260904202523 | 74 | 60 | 3.0 | 8.0 | 0.00 | 0.00 | 0.00 | 67 | 1014.1 |
| 20260904202020 | 76 | 346 | 2.0 | 7.0 | 0.00 | 0.00 | 0.00 | 64 | 1014.2 |
| 20260904201541 | 76 | 279 | 1.0 | 7.0 | 0.00 | 0.00 | 0.00 | 66 | 1014.1 |
| 20260904201017 | 76 | 343 | 2.0 | 5.0 | 0.00 | 0.00 | 0.00 | 66 | 1014.2 |
| 20260904200519 | 76 | 85 | 2.0 | 6.0 | 0.00 | 0.00 | 0.00 | 66 | 1014.2 |
| 20260904200049 | 76 | 138 | 2.0 | 6.0 | 0.00 | 0.00 | 0.00 | 67 | 1014.2 |
| 20260904195518 | 76 | 175 | 2.0 | 6.0 | 0.00 | 0.00 | 0.00 | 67 | 1014.3 |
| 20260904195018 | 77 | 68 | 1.0 | 5.0 | 0.00 | 0.00 | 0.00 | 65 | 1014.3 |
| 20260904194542 | 75 | 0 | 2.0 | 6.0 | 0.00 | 0.00 | 0.00 | 68 | 1014.3 |
| 20260904194019 | 76 | 48 | 2.0 | 6.0 | 0.00 | 0.00 | 0.00 | 67 | 1014.3 |
| 20260904193521 | 74 | 64 | 2.0 | 6.0 | 0.00 | 0.00 | 0.00 | 68 | 1014.3 |
| 20260904193046 | 74 | 59 | 2.0 | 8.0 | 0.00 | 0.00 | 0.00 | 69 | 1014.3 |
| 20260904192521 | 74 | 200 | 1.0 | 8.0 | 0.00 | 0.00 | 0.00 | 69 | 1014.2 |
| 20260904192017 | 75 | 110 | 1.0 | 7.0 | 0.00 | 0.00 | 0.00 | 68 | 1014.5 |
| 20260904191537 | 75 | 35 | 2.0 | 7.0 | 0.00 | 0.00 | 0.00 | 68 | 1014.4 |
| 20260904191017 | 74 | 78 | 1.0 | 6.0 | 0.00 | 0.00 | 0.00 | 69 | 1014.5 |
| 20260904190517 | 75 | 0 | 1.0 | 7.0 | 0.00 | 0.00 | 0.00 | 67 | 1014.5 |
| 20260904190041 | 75 | 111 | 2.0 | 7.0 | 0.00 | 0.00 | 0.00 | 68 | 1014.6 |
| 20260904185519 | 75 | 36 | 2.0 | 9.0 | 0.00 | 0.00 | 0.00 | 67 | 1014.6 |
| 20260904185020 | 73 | 19 | 2.0 | 9.0 | 0.00 | 0.00 | 0.00 | 69 | 1014.8 |
| 20260904184557 | 75 | 39 | 1.0 | 6.0 | 0.00 | 0.00 | 0.00 | 67 | 1014.7 |
| 20260904184021 | 75 | 26 | 1.0 | 6.0 | 0.00 | 0.00 | 0.00 | 68 | 1014.7 |
| 20260904183518 | 76 | 0 | 1.0 | 5.0 | 0.00 | 0.00 | 0.00 | 67 | 1014.7 |
| 20260904183043 | 74 | 13 | 2.0 | 7.0 | 0.00 | 0.00 | 0.00 | 69 | 1014.8 |
| 20260904182517 | 75 | 119 | 2.0 | 7.0 | 0.00 | 0.00 | 0.00 | 68 | 1014.9 |
| 20260904182026 | 75 | 0 | 1.0 | 7.0 | 0.00 | 0.00 | 0.00 | 68 | 1014.8 |
| 20260904181542 | 74 | 92 | 1.0 | 5.0 | 0.00 | 0.00 | 0.00 | 69 | 1014.8 |
| 20260904181027 | 74 | 90 | 2.0 | 8.0 | 0.00 | 0.00 | 0.00 | 69 | 1014.7 |
| 20260904180520 | 74 | 13 | 2.0 | 8.0 | 0.00 | 0.00 | 0.00 | 69 | 1014.7 |
| 20260904180056 | 73 | 108 | 1.0 | 5.0 | 0.00 | 0.00 | 0.00 | 70 | 1014.7 |
| 20260904175518 | 73 | 43 | 1.0 | 5.0 | 0.00 | 0.00 | 0.00 | 70 | 1014.8 |
| 20260904175018 | 73 | 167 | 1.0 | 6.0 | 0.00 | 0.00 | 0.00 | 70 | 1014.9 |
| 20260904174541 | 73 | 134 | 1.0 | 7.0 | 0.00 | 0.00 | 0.00 | 70 | 1014.7 |
| 20260904174020 | 73 | 331 | 2.0 | 8.0 | 0.00 | 0.00 | 0.00 | 70 | 1014.9 |
| 20260904173517 | 73 | 131 | 1.0 | 8.0 | 0.00 | 0.00 | 0.00 | 71 | 1014.8 |
| 20260904173048 | 73 | 129 | 2.0 | 5.0 | 0.00 | 0.00 | 0.00 | 70 | 1014.9 |
| 20260904172521 | 72 | 159 | 1.0 | 5.0 | 0.00 | 0.00 | 0.00 | 72 | 1014.9 |
| 20260904172022 | 73 | 89 | 1.0 | 6.0 | 0.00 | 0.00 | 0.00 | 70 | 1014.9 |
| 20260904171543 | 72 | 126 | 2.0 | 6.0 | 0.00 | 0.00 | 0.00 | 70 | 1014.7 |
| 20260904171019 | 73 | 150 | 1.0 | 6.0 | 0.00 | 0.00 | 0.00 | 70 | 1014.9 |
| 20260904170519 | 73 | 0 | 1.0 | 6.0 | 0.00 | 0.00 | 0.00 | 71 | 1014.9 |
| 20260904170041 | 72 | 65 | 1.0 | 7.0 | 0.00 | 0.00 | 0.00 | 71 | 1014.9 |
| 20260904165518 | 72 | 81 | 2.0 | 7.0 | 0.00 | 0.00 | 0.00 | 71 | 1014.8 |
| 20260904165020 | 72 | 92 | 0.0 | 4.0 | 0.00 | 0.00 | 0.00 | 72 | 1014.6 |
| 20260904164541 | 72 | 84 | 1.0 | 4.0 | 0.00 | 0.00 | 0.00 | 72 | 1014.6 |
| 20260904164021 | 72 | 67 | 1.0 | 4.0 | 0.00 | 0.00 | 0.00 | 72 | 1014.6 |
| 20260904163520 | 71 | 96 | 1.0 | 6.0 | 0.00 | 0.00 | 0.00 | 73 | 1014.6 |
| 20260904163040 | 70 | 62 | 1.0 | 6.0 | 0.00 | 0.00 | 0.00 | 74 | 1014.6 |
| 20260904162527 | 70 | 134 | 2.0 | 6.0 | 0.00 | 0.00 | 0.00 | 74 | 1014.6 |
| 20260904162018 | 71 | 131 | 2.0 | 5.0 | 0.00 | 0.00 | 0.00 | 73 | 1014.5 |
| 20260904161542 | 71 | 174 | 1.0 | 5.0 | 0.00 | 0.00 | 0.00 | 74 | 1014.4 |
| 20260904161021 | 70 | 0 | 2.0 | 5.0 | 0.00 | 0.00 | 0.00 | 75 | 1014.3 |
| 20260904160521 | 70 | 204 | 2.0 | 5.0 | 0.00 | 0.00 | 0.00 | 76 | 1014.4 |
| 20260904160042 | 69 | 219 | 1.0 | 7.0 | 0.00 | 0.00 | 0.00 | 75 | 1014.3 |
| 20260904155519 | 69 | 112 | 2.0 | 7.0 | 0.00 | 0.00 | 0.00 | 75 | 1014.2 |
| 20260904155020 | 69 | 0 | 1.0 | 4.0 | 0.00 | 0.00 | 0.00 | 77 | 1014.2 |
| 20260904154538 | 68 | 0 | 0.0 | 4.0 | 0.00 | 0.00 | 0.00 | 77 | 1014.2 |
| 20260904154020 | 68 | 0 | 1.0 | 4.0 | 0.00 | 0.00 | 0.00 | 78 | 1014.1 |
| 20260904153520 | 67 | 145 | 0.0 | 2.0 | 0.00 | 0.00 | 0.00 | 79 | 1014.0 |
| 20260904153049 | 67 | 360 | 0.0 | 2.0 | 0.00 | 0.00 | 0.00 | 81 | 1013.9 |
| 20260904152519 | 66 | 0 | 0.0 | 2.0 | 0.00 | 0.00 | 0.00 | 81 | 1013.9 |
| 20260904152018 | 66 | 0 | 0.0 | 3.0 | 0.00 | 0.00 | 0.00 | 82 | 1014.1 |
| 20260904151543 | 65 | 352 | 0.0 | 3.0 | 0.00 | 0.00 | 0.00 | 83 | 1014.0 |
| 20260904151022 | 65 | 0 | 1.0 | 3.0 | 0.00 | 0.00 | 0.00 | 83 | 1014.1 |
| 20260904150518 | 65 | 26 | 1.0 | 3.0 | 0.00 | 0.00 | 0.00 | 83 | 1014.2 |
| 20260904150045 | 65 | 35 | 0.0 | 3.0 | 0.00 | 0.00 | 0.00 | 82 | 1014.0 |
| 20260904145521 | 66 | 82 | 1.0 | 4.0 | 0.00 | 0.00 | 0.00 | 81 | 1014.1 |
| 20260904145020 | 65 | 0 | 0.0 | 4.0 | 0.00 | 0.00 | 0.00 | 82 | 1014.1 |
| 20260904144541 | 65 | 0 | 1.0 | 4.0 | 0.00 | 0.00 | 0.00 | 83 | 1014.2 |
| 20260904144020 | 64 | 136 | 1.0 | 3.0 | 0.00 | 0.00 | 0.00 | 84 | 1014.1 |
| 20260904143520 | 64 | 0 | 0.0 | 2.0 | 0.00 | 0.00 | 0.00 | 85 | 1014.1 |
| 20260904143040 | 63 | 0 | 0.0 | 0.0 | 0.00 | 0.00 | 0.00 | 86 | 1014.1 |
| 20260904142524 | 63 | 0 | 0.0 | 2.0 | 0.00 | 0.00 | 0.00 | 85 | 1014.0 |
| 20260904142019 | 63 | 0 | 0.0 | 2.0 | 0.00 | 0.00 | 0.00 | 85 | 1014.0 |
| 20260904141603 | 63 | 0 | 0.0 | 2.0 | 0.00 | 0.00 | 0.00 | 85 | 1013.8 |
| 20260904141020 | 63 | 98 | 0.0 | 2.0 | 0.00 | 0.00 | 0.00 | 86 | 1013.9 |
| 20260904140518 | 63 | 0 | 0.0 | 1.0 | 0.00 | 0.00 | 0.00 | 87 | 1013.7 |
| 20260904140041 | 62 | 0 | 0.0 | 2.0 | 0.00 | 0.00 | 0.00 | 87 | 1013.7 |
| 20260904135520 | 62 | 97 | 0.0 | 2.0 | 0.00 | 0.00 | 0.00 | 87 | 1013.7 |
| 20260904135020 | 61 | 98 | 0.0 | 0.0 | 0.00 | 0.00 | 0.00 | 87 | 1013.7 |
| 20260904134542 | 61 | 0 | 0.0 | 0.0 | 0.00 | 0.00 | 0.00 | 88 | 1013.6 |
| 20260904134020 | 61 | 0 | 0.0 | 0.0 | 0.00 | 0.00 | 0.00 | 87 | 1013.6 |
| 20260904133518 | 61 | 0 | 0.0 | 0.0 | 0.00 | 0.00 | 0.00 | 88 | 1013.5 |
| 20260904133043 | 61 | 0 | 0.0 | 0.0 | 0.00 | 0.00 | 0.00 | 87 | 1013.4 |
| 20260904132524 | 62 | 0 | 0.0 | 0.0 | 0.00 | 0.00 | 0.00 | 87 | 1013.4 |
| 20260904132020 | 62 | 0 | 0.0 | 0.0 | 0.00 | 0.00 | 0.00 | 87 | 1013.3 |
| 20260904131558 | 62 | 0 | 0.0 | 1.0 | 0.00 | 0.00 | 0.00 | 87 | 1013.2 |
| 20260904131020 | 62 | 0 | 0.0 | 1.0 | 0.00 | 0.00 | 0.00 | 88 | 1013.3 |
| 20260904130520 | 62 | 0 | 0.0 | 1.0 | 0.00 | 0.00 | 0.00 | 88 | 1013.3 |
| 20260904130041 | 61 | 0 | 0.0 | 1.0 | 0.00 | 0.00 | 0.00 | 88 | 1013.3 |
| 20260904125519 | 61 | 0 | 0.0 | 0.0 | 0.00 | 0.00 | 0.00 | 88 | 1013.2 |
| 20260904125018 | 61 | 0 | 0.0 | 0.0 | 0.00 | 0.00 | 0.00 | 88 | 1013.2 |
| 20260904124543 | 61 | 0 | 0.0 | 0.0 | 0.00 | 0.00 | 0.00 | 88 | 1013.2 |
| 20260904124018 | 61 | 0 | 0.0 | 0.0 | 0.00 | 0.00 | 0.00 | 88 | 1013.3 |
| 20260904123526 | 61 | 0 | 0.0 | 0.0 | 0.00 | 0.00 | 0.00 | 88 | 1013.1 |
| 20260904123057 | 61 | 0 | 0.0 | 0.0 | 0.00 | 0.00 | 0.00 | 89 | 1013.1 |
| 20260904122520 | 61 | 0 | 0.0 | 0.0 | 0.00 | 0.00 | 0.00 | 89 | 1013.2 |
| 20260904122022 | 61 | 0 | 0.0 | 0.0 | 0.00 | 0.00 | 0.00 | 89 | 1013.1 |
| 20260904121541 | 61 | 0 | 0.0 | 0.0 | 0.00 | 0.00 | 0.00 | 89 | 1013.2 |
| 20260904121021 | 61 | 0 | 0.0 | 0.0 | 0.00 | 0.00 | 0.00 | 89 | 1013.1 |
| 20260904120517 | 62 | 0 | 0.0 | 0.0 | 0.00 | 0.00 | 0.00 | 89 | 1013.1 |
| 20260904120041 | 62 | 0 | 0.0 | 0.0 | 0.00 | 0.00 | 0.00 | 88 | 1013.1 |
| 20260904115521 | 62 | 0 | 0.0 | 0.0 | 0.00 | 0.00 | 0.00 | 89 | 1013.1 |
| 20260904115018 | 62 | 0 | 0.0 | 0.0 | 0.00 | 0.00 | 0.00 | 88 | 1013.1 |
| 20260904114543 | 62 | 0 | 0.0 | 0.0 | 0.00 | 0.00 | 0.00 | 88 | 1013.2 |
| 20260904114018 | 62 | 0 | 0.0 | 0.0 | 0.00 | 0.00 | 0.00 | 88 | 1013.2 |
| 20260904113520 | 62 | 0 | 0.0 | 0.0 | 0.00 | 0.00 | 0.00 | 87 | 1013.3 |
| 20260904113039 | 63 | 0 | 0.0 | 0.0 | 0.00 | 0.00 | 0.00 | 87 | 1013.3 |
| 20260904112518 | 63 | 0 | 0.0 | 0.0 | 0.00 | 0.00 | 0.00 | 87 | 1013.2 |
| 20260904112017 | 63 | 0 | 0.0 | 0.0 | 0.00 | 0.00 | 0.00 | 87 | 1013.2 |
| 20260904111551 | 63 | 0 | 0.0 | 0.0 | 0.00 | 0.00 | 0.00 | 88 | 1013.3 |
| 20260904111017 | 63 | 0 | 0.0 | 0.0 | 0.00 | 0.00 | 0.00 | 88 | 1013.3 |
| 20260904110547 | 63 | 0 | 0.0 | 0.0 | 0.00 | 0.00 | 0.00 | 88 | 1013.3 |
| 20260904110040 | 63 | 0 | 0.0 | 0.0 | 0.00 | 0.00 | 0.00 | 88 | 1013.2 |
| 20260904105519 | 63 | 0 | 0.0 | 0.0 | 0.00 | 0.00 | 0.00 | 88 | 1013.3 |
| 20260904105020 | 63 | 0 | 0.0 | 0.0 | 0.00 | 0.00 | 0.00 | 89 | 1013.3 |
| 20260904104540 | 63 | 0 | 0.0 | 0.0 | 0.00 | 0.00 | 0.00 | 89 | 1013.2 |
| 20260904104021 | 63 | 0 | 0.0 | 0.0 | 0.00 | 0.00 | 0.00 | 89 | 1013.2 |
| 20260904103524 | 63 | 0 | 0.0 | 0.0 | 0.00 | 0.00 | 0.00 | 90 | 1013.1 |
| 20260904103044 | 63 | 0 | 0.0 | 2.0 | 0.00 | 0.00 | 0.00 | 90 | 1013.1 |
| 20260904102518 | 62 | 0 | 0.0 | 2.0 | 0.00 | 0.00 | 0.00 | 90 | 1013.0 |
| 20260904102018 | 62 | 0 | 0.0 | 2.0 | 0.00 | 0.00 | 0.00 | 90 | 1013.0 |
| 20260904101546 | 61 | 0 | 0.0 | 1.0 | 0.00 | 0.00 | 0.00 | 90 | 1013.1 |
| 20260904101019 | 61 | 0 | 0.0 | 1.0 | 0.00 | 0.00 | 0.00 | 89 | 1013.0 |
| 20260904100519 | 62 | 0 | 0.0 | 2.0 | 0.00 | 0.00 | 0.00 | 90 | 1013.1 |
| 20260904100039 | 62 | 0 | 0.0 | 2.0 | 0.00 | 0.00 | 0.00 | 89 | 1013.0 |
| 20260904095516 | 62 | 0 | 0.0 | 2.0 | 0.00 | 0.00 | 0.00 | 89 | 1013.1 |
| 20260904095022 | 63 | 0 | 0.0 | 0.0 | 0.00 | 0.00 | 0.00 | 90 | 1013.1 |
| 20260904094542 | 63 | 0 | 0.0 | 0.0 | 0.00 | 0.00 | 0.00 | 90 | 1013.1 |
| 20260904094021 | 62 | 0 | 0.0 | 0.0 | 0.00 | 0.00 | 0.00 | 90 | 1013.1 |
| 20260904093523 | 62 | 0 | 0.0 | 0.0 | 0.00 | 0.00 | 0.00 | 90 | 1013.1 |
| 20260904093040 | 62 | 0 | 0.0 | 0.0 | 0.00 | 0.00 | 0.00 | 90 | 1013.0 |
| 20260904092520 | 62 | 0 | 0.0 | 0.0 | 0.00 | 0.00 | 0.00 | 89 | 1013.0 |
| 20260904092017 | 62 | 0 | 0.0 | 0.0 | 0.00 | 0.00 | 0.00 | 89 | 1013.0 |
| 20260904091540 | 62 | 0 | 0.0 | 0.0 | 0.00 | 0.00 | 0.00 | 89 | 1013.1 |
| 20260904091020 | 62 | 0 | 0.0 | 0.0 | 0.00 | 0.00 | 0.00 | 89 | 1013.1 |
| 20260904090519 | 62 | 0 | 0.0 | 0.0 | 0.00 | 0.00 | 0.00 | 90 | 1013.1 |
| 20260904090042 | 62 | 0 | 0.0 | 0.0 | 0.00 | 0.00 | 0.00 | 89 | 1013.1 |
| 20260904085527 | 62 | 0 | 0.0 | 0.0 | 0.00 | 0.00 | 0.00 | 90 | 1013.1 |
| 20260904085021 | 62 | 0 | 0.0 | 0.0 | 0.00 | 0.00 | 0.00 | 90 | 1013.1 |
| 20260904084542 | 62 | 0 | 0.0 | 0.0 | 0.00 | 0.00 | 0.00 | 89 | 1013.2 |
| 20260904084017 | 62 | 0 | 0.0 | 0.0 | 0.00 | 0.00 | 0.00 | 89 | 1013.1 |
| 20260904083520 | 62 | 0 | 0.0 | 0.0 | 0.00 | 0.00 | 0.00 | 89 | 1013.2 |
| 20260904083051 | 62 | 0 | 0.0 | 0.0 | 0.00 | 0.00 | 0.00 | 89 | 1013.2 |
| 20260904082521 | 62 | 0 | 0.0 | 0.0 | 0.00 | 0.00 | 0.00 | 89 | 1013.3 |
| 20260904082020 | 62 | 0 | 0.0 | 0.0 | 0.00 | 0.00 | 0.00 | 89 | 1013.3 |
| 20260904081539 | 62 | 0 | 0.0 | 0.0 | 0.00 | 0.00 | 0.00 | 89 | 1013.2 |
| 20260904081023 | 62 | 0 | 0.0 | 0.0 | 0.00 | 0.00 | 0.00 | 89 | 1013.3 |
| 20260904080519 | 62 | 0 | 0.0 | 0.0 | 0.00 | 0.00 | 0.00 | 88 | 1013.3 |
| 20260904080040 | 62 | 0 | 0.0 | 0.0 | 0.00 | 0.00 | 0.00 | 88 | 1013.4 |
| 20260904075520 | 62 | 0 | 0.0 | 0.0 | 0.00 | 0.00 | 0.00 | 88 | 1013.5 |
| 20260904075020 | 63 | 0 | 0.0 | 0.0 | 0.00 | 0.00 | 0.00 | 88 | 1013.3 |
| 20260904074553 | 63 | 0 | 0.0 | 0.0 | 0.00 | 0.00 | 0.00 | 88 | 1013.5 |
| 20260904074017 | 63 | 0 | 0.0 | 0.0 | 0.00 | 0.00 | 0.00 | 88 | 1013.4 |
| 20260904073518 | 63 | 0 | 0.0 | 0.0 | 0.00 | 0.00 | 0.00 | 88 | 1013.4 |
| 20260904073041 | 63 | 0 | 0.0 | 0.0 | 0.00 | 0.00 | 0.00 | 88 | 1013.4 |
| 20260904072518 | 63 | 0 | 0.0 | 0.0 | 0.00 | 0.00 | 0.00 | 88 | 1013.5 |
| 20260904072018 | 63 | 0 | 0.0 | 0.0 | 0.00 | 0.00 | 0.00 | 88 | 1013.4 |
| 20260904071540 | 63 | 0 | 0.0 | 0.0 | 0.00 | 0.00 | 0.00 | 88 | 1013.4 |
| 20260904071021 | 63 | 0 | 0.0 | 1.0 | 0.00 | 0.00 | 0.00 | 88 | 1013.4 |
| 20260904070525 | 63 | 0 | 0.0 | 1.0 | 0.00 | 0.00 | 0.00 | 87 | 1013.5 |
| 20260904070039 | 63 | 0 | 0.0 | 1.0 | 0.00 | 0.00 | 0.00 | 88 | 1013.5 |
| 20260904065521 | 63 | 0 | 0.0 | 0.0 | 0.00 | 0.00 | 0.00 | 88 | 1013.5 |
| 20260904065017 | 63 | 0 | 0.0 | 0.0 | 0.00 | 0.00 | 0.00 | 87 | 1013.5 |
| 20260904064541 | 63 | 0 | 0.0 | 0.0 | 0.00 | 0.00 | 0.00 | 87 | 1013.5 |
| 20260904064017 | 63 | 0 | 0.0 | 0.0 | 0.00 | 0.00 | 0.00 | 87 | 1013.5 |
| 20260904063517 | 63 | 0 | 0.0 | 0.0 | 0.00 | 0.00 | 0.00 | 87 | 1013.5 |
| 20260904063053 | 63 | 0 | 0.0 | 0.0 | 0.00 | 0.00 | 0.00 | 87 | 1013.5 |
| 20260904062525 | 63 | 0 | 0.0 | 0.0 | 0.00 | 0.00 | 0.00 | 87 | 1013.4 |
| 20260904062021 | 63 | 0 | 0.0 | 0.0 | 0.00 | 0.00 | 0.00 | 87 | 1013.5 |
| 20260904061537 | 63 | 0 | 0.0 | 2.0 | 0.00 | 0.00 | 0.00 | 87 | 1013.5 |
| 20260904061018 | 64 | 0 | 0.0 | 2.0 | 0.00 | 0.00 | 0.00 | 87 | 1013.5 |
| 20260904060520 | 64 | 97 | 0.0 | 2.0 | 0.00 | 0.00 | 0.00 | 87 | 1013.4 |
| 20260904060105 | 64 | 0 | 0.0 | 1.0 | 0.00 | 0.00 | 0.00 | 87 | 1013.4 |
| 20260904055520 | 64 | 0 | 0.0 | 0.0 | 0.00 | 0.00 | 0.00 | 87 | 1013.5 |
| 20260904055017 | 64 | 0 | 0.0 | 0.0 | 0.00 | 0.00 | 0.00 | 87 | 1013.4 |
| 20260904054540 | 64 | 0 | 0.0 | 0.0 | 0.00 | 0.00 | 0.00 | 87 | 1013.3 |
| 20260904054020 | 64 | 0 | 0.0 | 0.0 | 0.00 | 0.00 | 0.00 | 87 | 1013.2 |
| 20260904053517 | 64 | 0 | 0.0 | 0.0 | 0.00 | 0.00 | 0.00 | 86 | 1013.1 |
| 20260904053036 | 64 | 0 | 0.0 | 0.0 | 0.00 | 0.00 | 0.00 | 86 | 1013.2 |
| 20260904052519 | 64 | 0 | 0.0 | 0.0 | 0.00 | 0.00 | 0.00 | 86 | 1013.2 |
| 20260904052025 | 64 | 0 | 0.0 | 0.0 | 0.00 | 0.00 | 0.00 | 86 | 1013.3 |
| 20260904051539 | 64 | 0 | 0.0 | 0.0 | 0.00 | 0.00 | 0.00 | 86 | 1013.4 |
| 20260904051021 | 64 | 0 | 0.0 | 0.0 | 0.00 | 0.00 | 0.00 | 86 | 1013.5 |
| 20260904050517 | 64 | 0 | 0.0 | 0.0 | 0.00 | 0.00 | 0.00 | 86 | 1013.4 |
| 20260904050043 | 64 | 0 | 0.0 | 0.0 | 0.00 | 0.00 | 0.00 | 86 | 1013.4 |
| 20260904045525 | 64 | 0 | 0.0 | 0.0 | 0.00 | 0.00 | 0.00 | 86 | 1013.5 |
| 20260904045017 | 64 | 0 | 0.0 | 0.0 | 0.00 | 0.00 | 0.00 | 85 | 1013.4 |
| 20260904044549 | 64 | 0 | 0.0 | 0.0 | 0.00 | 0.00 | 0.00 | 85 | 1013.4 |
| 20260904044019 | 65 | 0 | 0.0 | 0.0 | 0.00 | 0.00 | 0.00 | 85 | 1013.5 |
| 20260904043518 | 65 | 0 | 0.0 | 0.0 | 0.00 | 0.00 | 0.00 | 85 | 1013.5 |
| 20260904043043 | 65 | 0 | 0.0 | 0.0 | 0.00 | 0.00 | 0.00 | 85 | 1013.5 |
| 20260904042521 | 65 | 0 | 0.0 | 0.0 | 0.00 | 0.00 | 0.00 | 85 | 1013.4 |
| 20260904042021 | 65 | 0 | 0.0 | 0.0 | 0.00 | 0.00 | 0.00 | 85 | 1013.5 |
| 20260904041539 | 65 | 0 | 0.0 | 0.0 | 0.00 | 0.00 | 0.00 | 84 | 1013.5 |
| 20260904041025 | 65 | 0 | 0.0 | 0.0 | 0.00 | 0.00 | 0.00 | 84 | 1013.4 |
| 20260904040517 | 65 | 0 | 0.0 | 0.0 | 0.00 | 0.00 | 0.00 | 84 | 1013.6 |
| 20260904040041 | 65 | 0 | 0.0 | 0.0 | 0.00 | 0.00 | 0.00 | 83 | 1013.4 |
| 20260904035520 | 65 | 0 | 0.0 | 0.0 | 0.00 | 0.00 | 0.00 | 83 | 1013.3 |
| 20260904035016 | 65 | 0 | 0.0 | 0.0 | 0.00 | 0.00 | 0.00 | 83 | 1013.3 |
| 20260904034544 | 66 | 0 | 0.0 | 0.0 | 0.00 | 0.00 | 0.00 | 83 | 1013.3 |
| 20260904034018 | 66 | 0 | 0.0 | 2.0 | 0.00 | 0.00 | 0.00 | 82 | 1013.2 |
| 20260904033521 | 66 | 0 | 0.0 | 2.0 | 0.00 | 0.00 | 0.00 | 82 | 1013.3 |
| 20260904033043 | 66 | 0 | 0.0 | 2.0 | 0.00 | 0.00 | 0.00 | 82 | 1013.1 |
| 20260904032517 | 67 | 0 | 0.0 | 1.0 | 0.00 | 0.00 | 0.00 | 82 | 1013.1 |
| 20260904032017 | 67 | 0 | 0.0 | 1.0 | 0.00 | 0.00 | 0.00 | 82 | 1013.0 |
| 20260904031540 | 67 | 0 | 0.0 | 1.0 | 0.00 | 0.00 | 0.00 | 81 | 1013.0 |
| 20260904031018 | 67 | 0 | 0.0 | 1.0 | 0.00 | 0.00 | 0.00 | 81 | 1013.0 |
| 20260904030521 | 67 | 0 | 0.0 | 1.0 | 0.00 | 0.00 | 0.00 | 81 | 1013.0 |
| 20260904030039 | 67 | 0 | 0.0 | 1.0 | 0.00 | 0.00 | 0.00 | 81 | 1013.0 |
| 20260904025517 | 67 | 0 | 0.0 | 2.0 | 0.00 | 0.00 | 0.00 | 81 | 1013.0 |
| 20260904025022 | 68 | 0 | 0.0 | 2.0 | 0.00 | 0.00 | 0.00 | 81 | 1013.0 |
| 20260904024540 | 68 | 0 | 0.0 | 2.0 | 0.00 | 0.00 | 0.00 | 81 | 1012.9 |
| 20260904024017 | 68 | 0 | 0.0 | 2.0 | 0.00 | 0.00 | 0.00 | 81 | 1012.8 |
| 20260904023517 | 68 | 0 | 0.0 | 1.0 | 0.00 | 0.00 | 0.00 | 80 | 1012.9 |
| 20260904023041 | 68 | 0 | 0.0 | 1.0 | 0.00 | 0.00 | 0.00 | 80 | 1013.0 |
| 20260904022519 | 68 | 0 | 0.0 | 2.0 | 0.00 | 0.00 | 0.00 | 80 | 1012.9 |
| 20260904022020 | 68 | 0 | 0.0 | 3.0 | 0.00 | 0.00 | 0.00 | 80 | 1012.9 |
| 20260904021542 | 68 | 0 | 0.0 | 3.0 | 0.00 | 0.00 | 0.00 | 80 | 1012.9 |
| 20260904021020 | 68 | 360 | 1.0 | 3.0 | 0.00 | 0.00 | 0.00 | 80 | 1013.0 |
| 20260904020520 | 68 | 0 | 0.0 | 2.0 | 0.00 | 0.00 | 0.00 | 80 | 1013.0 |
| 20260904020041 | 68 | 0 | 0.0 | 2.0 | 0.00 | 0.00 | 0.00 | 80 | 1013.0 |
| 20260904015520 | 69 | 0 | 0.0 | 2.0 | 0.00 | 0.00 | 0.00 | 80 | 1013.1 |
| 20260904015022 | 69 | 0 | 0.0 | 2.0 | 0.00 | 0.00 | 0.00 | 80 | 1013.0 |
| 20260904014542 | 69 | 34 | 0.0 | 5.0 | 0.00 | 0.00 | 0.00 | 80 | 1012.9 |
| 20260904014018 | 69 | 0 | 0.0 | 5.0 | 0.00 | 0.00 | 0.00 | 80 | 1013.0 |
| 20260904013517 | 69 | 321 | 2.0 | 5.0 | 0.00 | 0.00 | 0.00 | 79 | 1013.1 |
| 20260904013035 | 69 | 5 | 1.0 | 3.0 | 0.00 | 0.00 | 0.00 | 80 | 1013.1 |
| 20260904012526 | 69 | 5 | 0.0 | 5.0 | 0.00 | 0.00 | 0.00 | 80 | 1013.2 |
| 20260904012023 | 69 | 0 | 0.0 | 5.0 | 0.00 | 0.00 | 0.00 | 79 | 1013.1 |
| 20260904011543 | 69 | 0 | 1.0 | 5.0 | 0.00 | 0.00 | 0.00 | 79 | 1013.1 |
| 20260904011017 | 70 | 341 | 1.0 | 4.0 | 0.00 | 0.00 | 0.00 | 79 | 1013.2 |
| 20260904010525 | 70 | 51 | 1.0 | 4.0 | 0.00 | 0.00 | 0.00 | 79 | 1013.2 |
| 20260904010050 | 70 | 28 | 0.0 | 4.0 | 0.00 | 0.00 | 0.00 | 79 | 1013.2 |
| 20260904005520 | 70 | 26 | 0.0 | 4.0 | 0.00 | 0.00 | 0.00 | 79 | 1013.1 |
| 20260904005020 | 70 | 5 | 2.0 | 4.0 | 0.00 | 0.00 | 0.00 | 78 | 1013.1 |
| 20260904004556 | 70 | 360 | 1.0 | 4.0 | 0.00 | 0.00 | 0.00 | 78 | 1013.1 |
| 20260904004019 | 70 | 0 | 0.0 | 4.0 | 0.00 | 0.00 | 0.00 | 78 | 1013.1 |
| 20260904003521 | 71 | 352 | 0.0 | 5.0 | 0.00 | 0.00 | 0.00 | 77 | 1013.1 |
| 20260904003035 | 71 | 13 | 1.0 | 5.0 | 0.00 | 0.00 | 0.00 | 77 | 1013.0 |
| 20260904002518 | 71 | 27 | 0.0 | 5.0 | 0.00 | 0.00 | 0.00 | 77 | 1013.0 |
| 20260904002018 | 71 | 0 | 1.0 | 5.0 | 0.00 | 0.00 | 0.00 | 76 | 1013.1 |
| 20260904001537 | 71 | 22 | 1.0 | 5.0 | 0.00 | 0.00 | 0.00 | 76 | 1013.0 |
| 20260904001019 | 72 | 5 | 2.0 | 6.0 | 0.00 | 0.00 | 0.00 | 75 | 1013.1 |
| 20260904000518 | 72 | 332 | 1.0 | 6.0 | 0.00 | 0.00 | 0.00 | 75 | 1013.2 |
| 20260904000053 | 72 | 13 | 1.0 | 5.0 | 0.00 | 0.00 | 0.00 | 74 | 1013.2 |
| 20260903235519 | 72 | 236 | 1.0 | 6.0 | 0.00 | 0.00 | 0.00 | 74 | 1013.2 |
| 20260903235019 | 72 | 24 | 2.0 | 6.0 | 0.00 | 0.00 | 0.00 | 74 | 1013.2 |
| 20260903234543 | 73 | 313 | 2.0 | 6.0 | 0.00 | 0.00 | 0.00 | 73 | 1013.2 |
| 20260903234020 | 73 | 69 | 1.0 | 4.0 | 0.00 | 0.00 | 0.00 | 72 | 1013.2 |